Theta_e
334 332 334 330 331 332 328 322 320 317 315 314 313 312 311 311 308 307 308 309 309 309 309 309 309 309 308 307 307 306 306 307 307 307 306 306 306 306 306 307 307 308 309
323 324 320 320 319 319 316 314 313 312 311 311 311 309 307 307 308 309 309 309 309 308 307 307 307 307 307 305 303 302 302 302 302 303 302 304 303 304 305 305 306 307 308
315 315 315 316 315 313 312 311 311 311 310 309 307 306 307 308 308 308 307 308 307 306 306 306 305 304 302 302 300 300 300 300 300 300 301 301 302 303 304 304 306 305 306
313 312 311 312 312 311 310 310 310 309 308 306 305 306 306 306 306 305 306 306 304 304 303 302 301 301 301 300 300 299 299 299 299 300 300 300 301 302 303 304 304 305 305
311 310 309 310 310 310 309 308 307 306 305 305 305 305 304 304 304 304 305 304 303 303 302 302 301 300 299 299 298 299 299 299 299 299 299 300 300 301 302 302 303 303 304
309 307 307 308 307 307 306 306 305 304 304 304 303 303 303 302 303 303 303 304 302 301 300 301 299 299 299 301 298 297 298 299 299 299 299 299 299 300 301 301 302 303 305
306 305 304 304 304 304 305 305 304 303 303 302 301 302 302 301 302 302 302 303 302 299 299 299 299 299 299 300 301 299 302 301 299 299 299 299 299 300 301 301 303 304 305
304 303 303 304 304 304 304 303 302 302 301 300 300 300 301 301 301 302 302 302 301 300 298 298 297 297 298 297 299 299 300 299 299 299 299 300 301 302 303 305 306 305 306
302 302 302 303 302 303 303 302 301 301 299 298 298 299 299 299 300 301 301 301 300 300 298 297 294 296 295 296 297 297 299 301 305 302 301 301 302 304 306 307 307 307 307
300 301 302 301 301 301 301 301 300 300 298 298 297 297 298 298 299 299 299 300 297 298 296 297 297 297 296 296 295 293 295 296 297 299 301 302 302 303 305 306 306 307 307
299 300 300 299 299 299 300 300 299 299 298 297 296 295 295 295 295 294 295 296 293 294 294 295 297 297 296 296 294 292 293 295 297 297 298 299 300 302 304 305 306 307 307
299 298 298 298 297 298 298 297 297 297 296 295 296 295 294 293 294 294 292 291 291 291 291 291 294 296 296 296 297 295 297 297 295 296 296 298 299 300 304 303 305 305 307
297 296 295 295 295 295 295 295 295 295 294 292 292 291 291 291 291 292 293 291 290 290 290 290 292 294 296 297 296 295 294 293 292 293 294 296 297 300 304 303 303 303 304
295 293 294 293 292 292 292 292 291 291 291 290 290 290 290 290 288 288 289 290 289 290 289 289 290 290 293 293 294 293 290 290 290 291 292 295 297 300 304 303 302 302 303
292 292 292 292 292 292 292 292 291 291 291 291 291 290 290 290 289 286 286 287 287 287 287 287 287 286 287 289 289 288 288 289 289 290 292 293 296 298 303 304 302 302 301
292 292 292 292 292 292 292 292 292 292 292 292 291 291 290 290 289 287 285 286 287 286 286 285 285 284 284 284 285 285 286 286 287 288 290 292 293 296 301 303 303 302 301
292 292 292 293 293 293 292 292 292 292 292 291 290 290 289 288 287 286 285 284 285 285 284 283 283 283 283 283 283 284 284 285 286 287 289 290 292 295 300 302 303 303 302
291 292 292 292 292 292 292 292 292 291 291 290 289 289 288 287 287 286 285 284 284 283 282 282 282 282 282 282 282 283 284 285 285 286 287 289 291 293 296 300 301 302 302
292 291 291 291 291 291 291 291 291 291 290 290 289 289 288 287 286 285 285 283 282 282 281 281 281 281 281 281 281 282 283 283 284 285 286 287 289 292 293 298 300 301 301
292 292 291 291 290 290 290 290 289 289 289 289 288 288 287 287 286 285 284 283 282 281 281 280 280 280 280 280 281 281 283 283 284 284 285 287 288 290 292 296 298 300 300
292 292 292 291 290 290 289 289 288 288 288 287 287 287 287 286 285 285 284 283 282 281 280 280 280 280 280 280 280 280 281 282 283 284 285 286 288 289 291 294 296 298 299
291 291 290 290 290 289 288 288 288 287 287 286 286 286 286 285 284 284 284 283 282 281 280 280 280 280 280 280 279 279 280 281 283 284 285 286 287 288 289 291 293 295 297
290 290 289 289 289 289 288 287 287 287 286 286 286 285 285 284 283 283 282 282 281 281 280 280 280 280 280 280 280 280 280 281 282 283 285 286 287 288 288 290 291 293 294
290 290 289 288 288 288 288 287 287 286 286 285 285 284 284 283 283 282 281 281 280 280 280 280 280 280 280 280 280 281 282 284 285 286 287 287 287 288 288 289 290 291 292
290 289 289 289 288 287 287 287 286 286 285 285 284 284 283 283 282 281 280 280 280 280 280 280 279 280 280 280 281 281 282 285 286 287 287 288 288 289 288 288 289 290 291
290 289 289 288 288 288 287 286 286 285 285 284 284 283 283 282 280 280 280 280 280 280 280 280 280 280 280 280 280 281 282 283 286 287 287 287 287 287 287 287 288 289 290
Wind_Speed
27 28 26 28 31 31 32 31 27 23 20 17 15 13 11 10 8 8 11 13 14 16 17 17 17 18 17 17 22 20 18 17 13 26 28 30 28 24 30 30 28 27 28
32 33 34 37 37 36 34 31 28 26 21 18 15 13 12 12 13 15 15 14 16 16 17 17 18 13 20 21 19 19 18 19 19 19 27 26 28 28 28 26 28 25 25
38 38 35 34 33 32 30 28 26 23 20 17 15 15 16 16 15 14 13 15 14 15 15 16 14 19 20 21 19 19 20 20 21 20 23 26 27 25 29 27 23 24 23
37 38 37 34 32 31 29 26 24 20 19 17 16 16 16 16 16 14 15 15 14 16 17 17 15 16 16 19 20 21 22 22 19 19 21 23 24 29 24 19 22 26 27
39 37 35 35 33 30 27 24 22 21 20 18 18 18 19 20 18 16 14 16 19 20 20 19 16 14 16 18 19 22 23 20 19 18 18 21 21 23 20 24 24 26 27
38 34 31 31 29 27 25 23 22 22 20 19 19 19 20 20 18 18 17 18 19 20 21 21 15 17 23 25 22 17 17 19 20 16 20 17 24 25 25 25 25 20 6
36 31 30 29 29 26 25 24 23 21 18 18 18 19 20 20 17 17 19 19 19 19 21 20 20 22 25 28 28 22 23 23 16 19 21 23 25 30 30 26 22 21 19
32 29 28 29 28 25 24 24 21 19 19 19 19 18 18 18 17 17 18 20 18 19 20 21 22 22 25 28 29 28 27 24 26 26 26 27 26 28 27 24 19 22 22
28 28 28 28 25 23 23 21 18 18 18 20 19 19 19 19 17 17 18 20 23 20 20 19 22 23 24 26 28 31 33 34 32 31 29 28 29 29 29 24 17 16 7
28 28 26 24 22 22 20 19 16 16 17 18 19 20 18 18 18 18 19 19 23 23 19 21 23 22 25 26 28 27 27 30 31 34 36 35 34 34 32 28 21 14 11
28 28 25 22 21 19 18 16 15 16 17 19 20 20 21 20 18 20 19 19 21 22 20 23 24 24 27 28 28 26 26 26 30 29 30 30 33 33 32 30 25 20 12
27 26 23 21 20 19 19 17 17 17 20 19 19 20 21 22 21 19 19 19 18 21 21 21 24 26 28 32 32 30 32 33 30 29 29 30 32 33 32 31 27 25 19
28 27 25 23 22 22 23 23 23 22 23 22 22 20 22 25 25 22 18 19 19 20 20 22 26 29 30 31 34 35 35 34 30 28 27 28 31 35 27 32 28 26 20
30 27 26 27 27 28 29 30 31 29 29 27 25 23 23 26 28 27 22 19 20 19 20 26 29 30 32 32 35 37 34 30 27 25 26 30 31 31 25 30 24 27 18
30 30 29 28 28 29 30 28 29 27 27 28 25 24 24 23 22 22 23 21 20 22 22 26 33 36 35 38 37 34 34 35 33 33 31 32 31 32 33 27 26 23 19
29 26 24 25 24 24 24 23 21 21 20 21 22 22 21 18 16 19 26 25 25 24 28 28 26 26 27 28 29 30 31 33 33 31 31 30 30 30 30 28 26 24 21
28 24 23 23 22 20 20 21 21 24 24 23 23 24 24 22 21 20 23 29 33 32 30 25 24 25 26 25 25 25 27 30 30 30 30 30 30 31 30 29 27 25 24
28 26 26 24 23 22 21 21 22 24 23 22 23 23 24 26 27 28 29 31 35 35 27 24 24 25 25 24 25 26 30 34 34 32 31 31 30 29 29 30 29 27 22
26 25 26 25 24 24 24 24 23 22 22 20 20 21 21 25 29 32 34 34 25 24 24 24 24 23 24 26 27 26 27 28 31 31 31 31 31 29 29 29 27 28 25
23 21 21 21 24 24 24 24 23 23 22 21 20 19 21 25 29 29 30 26 24 24 23 23 23 24 25 28 29 29 31 31 34 34 34 33 31 28 28 28 29 26 27
18 17 19 20 21 22 21 22 22 23 22 21 19 18 19 22 19 21 21 23 23 23 24 22 23 26 28 29 28 29 28 27 28 32 33 33 33 31 29 26 27 27 26
20 21 21 21 20 20 20 19 20 20 20 19 19 19 19 21 21 19 18 18 19 21 23 23 24 25 27 28 28 28 26 28 32 31 32 31 31 32 29 28 28 27 25
22 22 22 21 20 19 19 19 18 19 18 18 18 18 19 20 20 19 18 18 19 21 22 25 25 27 28 28 29 28 26 28 27 26 27 28 27 30 26 26 26 27 27
20 20 20 20 19 18 17 17 16 16 17 16 17 17 17 18 18 19 19 18 18 20 22 23 25 26 28 31 32 31 28 26 27 27 27 27 27 30 28 27 26 26 25
19 19 17 17 17 16 16 15 14 14 14 14 14 15 16 17 18 19 19 19 19 21 22 23 25 26 28 29 30 30 27 24 25 27 28 28 28 30 30 27 27 27 27
17 17 16 15 15 15 13 12 11 12 12 12 12 13 14 16 17 18 18 19 20 20 21 22 24 25 27 30 30 29 29 27 24 25 28 28 28 28 28 28 28 27 27
Wind_Direction
130 131 128 129 133 136 133 131 135 133 131 116 102 89 71 56 50 50 45 37 35 34 28 23 17 9 6 3 338 331 319 312 297 307 311 311 315 316 317 318 316 314 313
121 120 116 120 125 128 129 129 134 128 121 112 98 88 72 57 50 47 46 38 35 29 24 18 16 17 354 344 337 333 328 326 314 306 309 314 317 319 314 317 320 314 310
116 115 115 119 122 121 122 124 121 113 103 94 84 69 58 56 57 55 51 47 39 30 22 21 21 358 356 351 344 338 332 323 314 304 306 313 314 322 323 322 318 318 320
112 111 112 118 119 120 118 114 110 104 95 83 75 74 72 71 64 59 56 50 40 37 31 19 17 13 354 342 340 337 328 321 316 314 315 315 321 320 316 315 313 318 316
109 109 109 117 119 117 113 109 105 99 92 85 85 76 73 65 54 53 52 44 39 35 33 32 28 3 359 353 339 333 328 322 323 323 319 316 315 320 320 314 308 312 311
106 106 112 113 112 108 109 108 103 96 90 90 85 79 76 68 62 58 48 42 37 34 30 29 17 5 3 2 352 343 339 330 320 321 314 309 311 312 311 311 311 313 320
107 110 112 115 111 110 111 110 101 94 94 89 82 72 70 63 53 46 41 39 36 34 30 23 17 9 3 358 359 360 3 9 351 326 308 312 309 311 307 305 312 315 315
105 108 112 110 108 108 106 102 99 94 85 80 75 67 66 56 43 38 38 38 40 40 31 24 16 7 8 1 357 359 2 1 0 350 332 324 327 333 333 325 329 320 320
101 107 111 111 111 111 106 104 102 95 82 75 70 65 58 48 37 35 38 36 41 42 34 28 18 13 11 12 7 1 1 8 8 9 3 356 355 1 6 355 339 333 329
105 108 106 107 107 106 106 102 95 88 83 78 71 64 57 51 44 40 35 31 35 34 31 28 26 24 22 22 17 359 352 355 357 358 7 7 3 3 6 357 340 324 332
110 106 103 100 101 102 104 100 94 86 84 76 74 68 57 50 46 41 36 36 33 32 27 26 27 30 33 30 28 13 359 359 3 359 357 355 356 360 359 357 359 339 324
108 106 102 101 100 102 101 96 90 88 82 75 71 61 52 49 46 43 41 40 37 36 28 26 29 31 32 33 29 25 21 19 9 2 360 354 351 347 352 357 2 5 8
108 104 101 99 97 96 94 90 85 79 73 66 61 53 46 45 42 41 39 36 38 39 35 36 36 33 31 30 30 27 24 14 4 1 352 347 344 346 353 1 4 12 16
106 104 104 102 99 94 90 86 81 75 72 67 62 57 52 47 38 31 33 35 38 38 35 36 36 36 33 30 28 26 19 10 1 351 347 350 352 356 360 4 358 358 5
108 109 106 103 99 94 86 80 78 74 70 67 57 51 46 45 44 41 42 42 44 44 40 35 29 27 22 22 20 16 15 12 4 360 357 354 353 355 359 4 6 6 12
110 110 105 102 99 96 94 87 77 74 67 59 56 56 60 55 50 47 47 54 54 49 43 33 24 20 17 10 7 3 10 6 1 356 358 357 353 352 355 2 11 13 10
112 111 105 101 99 100 99 98 91 81 75 74 66 62 58 55 55 54 54 52 51 51 43 31 23 19 13 8 7 6 1 1 2 2 359 356 356 357 1 3 5 11 12
105 103 103 100 98 97 99 95 92 87 78 71 67 65 58 56 53 53 53 52 42 43 38 29 22 18 13 9 8 8 7 9 9 4 1 0 359 360 359 1 3 5 5
110 104 101 97 94 93 92 91 90 87 83 76 69 61 58 56 54 51 48 49 39 33 29 27 23 18 15 13 12 12 11 7 8 5 3 2 0 0 357 1 1 6 10
110 108 104 98 94 92 90 90 89 86 81 73 67 58 53 50 47 44 44 42 40 35 29 26 22 21 19 17 14 13 14 12 10 9 7 7 3 2 359 1 3 5 8
107 109 109 106 104 95 93 90 88 86 83 77 70 65 57 56 51 46 42 37 36 33 31 26 24 24 23 19 16 14 13 10 8 9 10 12 10 1 3 4 6 8 10
119 115 110 109 109 105 99 97 93 91 87 81 73 64 55 54 50 46 41 36 34 33 32 29 27 26 25 21 17 14 11 8 11 9 11 14 14 13 8 8 8 9 10
124 119 114 110 109 110 104 96 91 87 82 75 68 60 54 51 47 42 40 36 34 33 31 31 28 27 28 26 25 19 14 12 10 9 9 12 14 18 13 10 9 8 7
125 124 122 120 116 111 107 103 94 84 77 70 64 58 53 47 43 41 39 38 36 34 34 32 31 29 27 28 28 26 25 24 22 24 23 20 18 21 20 16 14 11 11
125 126 127 126 120 118 113 102 95 85 75 67 63 57 48 44 41 38 36 36 36 35 33 32 30 29 29 27 27 26 26 29 29 29 31 30 26 26 25 19 16 15 15
133 132 129 125 125 125 116 107 98 86 76 67 60 55 47 42 38 36 34 33 33 33 33 32 30 29 28 28 26 25 26 27 29 31 33 30 27 26 24 22 18 18 17